| time (UTC) | temp F | wind direction | speed knots | gust knots | rain 1hr in | rain 24hr in | rain mn in | humidity % | barometer mb |
| 20260504231017 | 57 | 315 | 1.7 | 3.5 | 0.00 | 0.00 | 0.00 | 85 | 1013.6 |
| 20260504230017 | 57 | 0.0 | 2.6 | 0.00 | 0.00 | 0.00 | 85 | 1013.7 | |
| 20260504225017 | 57 | 0.0 | 0.0 | 0.00 | 0.00 | 0.00 | 84 | 1013.7 | |
| 20260504224017 | 57 | 0.0 | 0.0 | 0.00 | 0.00 | 0.00 | 83 | 1013.8 | |
| 20260504223037 | 57 | 0.0 | 0.9 | 0.00 | 0.00 | 0.00 | 83 | 1013.8 | |
| 20260504222017 | 58 | 0.0 | 0.9 | 0.00 | 0.00 | 0.00 | 83 | 1013.9 | |
| 20260504221017 | 58 | 0.0 | 1.7 | 0.00 | 0.00 | 0.00 | 81 | 1013.9 | |
| 20260504220017 | 58 | 0.0 | 1.7 | 0.00 | 0.00 | 0.00 | 81 | 1013.8 | |
| 20260504215056 | 58 | 315 | 0.9 | 2.6 | 0.00 | 0.00 | 0.00 | 81 | 1014.0 |
| 20260504214016 | 58 | 315 | 1.7 | 3.5 | 0.00 | 0.00 | 0.00 | 81 | 1014.1 |
| 20260504213016 | 58 | 315 | 0.9 | 2.6 | 0.00 | 0.00 | 0.00 | 81 | 1014.1 |
| 20260504212016 | 59 | 293 | 2.6 | 3.5 | 0.00 | 0.00 | 0.00 | 81 | 1014.2 |
| 20260504211037 | 59 | 315 | 1.7 | 4.3 | 0.00 | 0.00 | 0.00 | 81 | 1014.1 |
| 20260504210016 | 59 | 315 | 1.7 | 3.5 | 0.00 | 0.00 | 0.00 | 81 | 1014.1 |
| 20260504205016 | 59 | 293 | 1.7 | 3.5 | 0.00 | 0.00 | 0.00 | 80 | 1014.1 |
| 20260504204016 | 59 | 293 | 0.9 | 1.7 | 0.00 | 0.00 | 0.00 | 80 | 1014.2 |
| 20260504203016 | 59 | 293 | 0.9 | 1.7 | 0.00 | 0.00 | 0.00 | 80 | 1014.1 |
| 20260504202016 | 59 | 293 | 0.9 | 1.7 | 0.00 | 0.00 | 0.00 | 80 | 1014.2 |
| 20260504201016 | 60 | 293 | 1.7 | 2.6 | 0.00 | 0.00 | 0.00 | 79 | 1014.2 |
| 20260504200036 | 60 | 293 | 0.9 | 2.6 | 0.00 | 0.00 | 0.00 | 78 | 1014.1 |
| 20260504195036 | 61 | 293 | 1.7 | 3.5 | 0.00 | 0.00 | 0.00 | 77 | 1014.0 |
| 20260504194015 | 60 | 315 | 0.9 | 2.6 | 0.00 | 0.00 | 0.00 | 75 | 1013.9 |
| 20260504193016 | 60 | 315 | 1.7 | 2.6 | 0.00 | 0.00 | 0.00 | 77 | 1013.8 |
| 20260504192015 | 61 | 293 | 1.7 | 3.5 | 0.00 | 0.00 | 0.00 | 76 | 1014.1 |
| 20260504191015 | 61 | 293 | 2.6 | 4.3 | 0.00 | 0.00 | 0.00 | 75 | 1014.2 |
| 20260504190015 | 61 | 270 | 2.6 | 3.5 | 0.00 | 0.00 | 0.00 | 74 | 1014.0 |
| 20260504185017 | 62 | 293 | 0.9 | 3.5 | 0.00 | 0.00 | 0.00 | 74 | 1013.9 |
| 20260504184016 | 62 | 293 | 2.6 | 7.0 | 0.00 | 0.00 | 0.00 | 73 | 1013.8 |
| 20260504183017 | 63 | 293 | 5.2 | 10.4 | 0.00 | 0.00 | 0.00 | 72 | 1013.5 |
| 20260504182016 | 63 | 315 | 5.2 | 11.3 | 0.00 | 0.00 | 0.00 | 71 | 1013.2 |
| 20260504181017 | 64 | 293 | 7.8 | 13.9 | 0.00 | 0.00 | 0.00 | 69 | 1013.4 |
| 20260504180017 | 65 | 315 | 7.0 | 13.0 | 0.00 | 0.00 | 0.00 | 67 | 1013.2 |
| 20260504175017 | 66 | 293 | 10.4 | 16.5 | 0.00 | 0.00 | 0.00 | 66 | 1013.0 |
| 20260504174016 | 68 | 293 | 7.0 | 13.0 | 0.00 | 0.00 | 0.00 | 62 | 1012.9 |
| 20260504173016 | 70 | 270 | 7.8 | 12.2 | 0.00 | 0.00 | 0.00 | 58 | 1012.7 |
| 20260504172016 | 70 | 270 | 2.6 | 6.1 | 0.00 | 0.00 | 0.00 | 56 | 1012.6 |
| 20260504171016 | 71 | 270 | 3.5 | 7.8 | 0.00 | 0.00 | 0.00 | 55 | 1012.5 |
| 20260504151016 | 73 | 180 | 3.5 | 6.1 | 0.00 | 0.00 | 0.00 | 52 | 1012.4 |
| 20260504141036 | 72 | 248 | 0.9 | 1.7 | 0.00 | 0.00 | 0.00 | 52 | 1013.1 |
| 20260504110515 | 70 | 270 | 2.6 | 3.5 | 0.00 | 0.00 | 0.00 | 59 | 1014.6 |